Dewpoint
59 65 72 72 73 73 74 73 73 73 73 73 73 73 73 73 74 74 74 75 74 74 73 74 73 73 73 73 73 73 73 73 73 73 72 71 71 71 70 70 71 64 71
62 64 71 72 72 73 73 73 73 73 73 73 73 73 73 73 74 74 74 74 74 72 72 72 72 72 72 72 72 72 72 72 72 72 72 70 71 71 70 71 70 68 71
63 64 66 71 72 72 73 74 74 74 73 73 73 73 73 73 74 74 74 74 74 72 71 71 71 71 71 72 72 72 72 72 71 71 72 63 65 70 70 70 72 70 70
62 62 63 71 72 72 73 74 74 74 74 73 73 73 73 73 73 74 74 74 73 72 71 70 70 70 71 71 71 71 71 71 71 71 68 63 61 70 70 70 71 70 69
62 60 66 71 71 72 72 73 73 73 73 73 73 73 73 73 73 73 73 73 73 72 71 69 69 70 71 71 71 71 71 71 71 70 65 61 62 68 70 70 70 70 70
61 62 70 70 71 71 72 72 72 72 72 72 73 73 73 73 73 73 73 73 72 72 71 69 69 70 70 70 71 71 71 70 70 65 59 63 64 70 70 70 71 70 70
61 69 68 70 71 71 72 71 71 71 71 72 72 73 73 73 73 73 72 72 73 72 71 71 70 69 70 70 70 70 70 69 66 65 58 61 68 71 70 70 70 70 70
66 69 69 71 71 71 71 71 70 70 70 71 71 72 72 72 72 72 71 72 72 73 73 72 70 69 69 69 69 69 69 68 64 62 57 59 70 70 69 70 70 70 70
69 70 70 69 70 71 70 70 70 70 70 70 70 70 71 71 70 71 71 71 72 72 72 72 71 69 68 68 69 68 68 68 65 62 58 58 70 70 69 70 70 70 70
70 70 71 71 70 71 70 70 70 70 70 70 70 70 70 70 70 70 70 70 71 71 71 72 71 70 68 67 67 67 68 68 65 59 58 62 70 70 70 70 70 70 70
68 69 70 69 70 71 71 71 70 70 70 70 70 70 69 67 68 67 67 69 70 70 71 71 71 70 70 68 67 66 67 61 58 58 57 68 70 71 70 71 70 70 70
65 67 68 69 70 71 70 71 71 70 70 70 70 71 70 71 72 69 70 70 70 70 70 69 69 70 69 66 66 67 63 61 59 57 55 68 70 70 70 70 70 70 70
64 66 68 70 71 70 69 70 70 69 69 68 69 70 71 72 72 69 71 68 68 69 68 68 68 67 65 64 64 68 67 65 62 60 60 67 70 70 70 71 70 70 70
64 66 67 69 69 69 68 66 66 65 64 63 64 65 68 70 69 69 68 70 70 71 69 70 71 70 69 69 68 68 67 66 64 64 63 66 68 70 70 70 71 71 70
64 66 67 67 66 64 64 64 63 62 60 59 59 59 60 63 64 64 67 65 67 65 65 64 65 66 67 68 69 68 67 68 67 68 65 64 65 68 69 68 71 71 70
62 62 64 65 63 61 59 57 57 56 57 56 56 52 56 60 56 56 59 61 63 62 59 59 59 60 62 64 66 67 68 69 68 68 69 69 63 65 67 68 69 71 70
57 59 61 62 62 59 56 51 48 48 47 47 47 51 50 52 53 53 49 49 49 53 51 53 53 53 54 55 58 60 62 64 66 68 69 69 68 63 64 66 67 68 70
51 52 53 55 57 57 55 51 48 47 46 45 45 45 48 48 48 48 44 46 49 48 46 46 47 46 47 47 52 52 54 56 60 62 65 67 68 68 65 64 65 66 67
47 49 49 51 50 50 49 48 47 47 43 42 42 43 47 47 48 47 44 47 50 45 44 44 43 46 45 46 46 48 50 48 51 50 55 59 63 65 66 64 63 63 64
44 45 45 44 47 47 45 45 43 42 42 41 41 44 47 46 48 48 45 48 49 45 44 44 48 46 45 45 40 42 49 49 49 49 48 47 51 58 64 65 66 64 62
43 41 41 43 45 46 47 42 41 39 40 40 41 46 46 47 48 48 46 48 48 47 47 48 46 46 44 46 43 44 46 49 51 47 48 47 47 53 60 60 60 58 57
42 41 41 41 41 39 39 40 40 43 44 45 47 44 45 46 48 46 48 47 48 47 48 49 49 47 45 44 44 43 40 41 44 48 50 50 52 50 52 55 57 55 56
42 42 39 39 40 39 41 41 42 44 45 38 40 40 42 44 46 48 47 48 48 47 46 48 48 48 45 46 47 44 41 39 45 45 46 45 50 46 48 47 48 48 52
43 42 40 40 40 39 40 41 42 39 39 42 41 40 40 43 45 47 48 48 48 47 47 47 46 48 48 45 47 45 49 47 43 41 46 47 47 46 50 46 45 47 49
42 42 42 41 39 41 45 46 41 42 42 43 45 43 45 45 43 44 47 47 47 46 47 47 47 47 46 46 44 44 46 45 46 42 39 42 44 44 44 46 45 48 48
41 42 43 41 40 47 45 42 41 41 41 41 39 43 40 40 41 43 44 46 47 47 46 45 46 46 45 45 45 44 43 42 41 40 39 42 42 44 45 46 46 47 48
Lifted_Index
-5 -5 -5 -5 -5 -6 -6 -6 -6 -5 -5 -5 -5 -5 -5 -5 -6 -6 -6 -6 -6 -6 -6 -6 -6 -6 -5 -5 -5 -5 -5 -5 -5 -5 -5 -5 -4 -4 -4 -4 -4 -4 -4
-5 -5 -5 -5 -5 -5 -6 -6 -6 -5 -5 -5 -5 -5 -5 -5 -5 -6 -6 -6 -6 -5 -5 -5 -5 -5 -5 -5 -5 -5 -5 -5 -5 -5 -4 -4 -4 -4 -4 -4 -4 -4 -4
-5 -5 -4 -4 -5 -5 -6 -6 -6 -6 -6 -5 -5 -5 -5 -5 -5 -6 -6 -6 -6 -5 -5 -5 -5 -4 -4 -5 -5 -4 -4 -4 -4 -4 -4 -3 -3 -4 -4 -4 -4 -4 -4
-5 -5 -4 -4 -4 -5 -5 -6 -6 -6 -6 -5 -5 -5 -5 -5 -6 -6 -6 -6 -6 -5 -5 -4 -4 -4 -4 -4 -4 -4 -4 -4 -4 -4 -4 -3 -3 -4 -4 -4 -4 -4 -3
-5 -5 -4 -4 -4 -5 -5 -6 -6 -6 -6 -6 -6 -6 -6 -6 -6 -6 -6 -6 -6 -5 -5 -4 -3 -3 -4 -4 -4 -4 -4 -4 -4 -4 -4 -3 -3 -4 -4 -4 -4 -4 -4
-6 -6 -5 -5 -5 -5 -5 -5 -5 -5 -6 -6 -6 -6 -6 -6 -6 -6 -6 -6 -6 -6 -5 -4 -3 -3 -3 -3 -3 -3 -3 -3 -3 -3 -3 -3 -3 -4 -4 -4 -4 -4 -4
-6 -6 -6 -5 -5 -5 -5 -5 -5 -5 -5 -5 -6 -6 -6 -6 -6 -6 -6 -6 -6 -6 -6 -5 -4 -3 -3 -3 -3 -3 -3 -3 -3 -3 -2 -3 -4 -4 -4 -4 -4 -4 -4
-8 -7 -6 -5 -5 -5 -5 -5 -4 -4 -5 -5 -5 -5 -5 -6 -5 -5 -5 -5 -6 -6 -6 -5 -4 -3 -3 -3 -3 -3 -3 -2 -3 -3 -2 -2 -3 -4 -4 -4 -4 -4 -4
-8 -8 -7 -6 -6 -5 -5 -4 -4 -4 -4 -4 -5 -5 -5 -5 -5 -5 -5 -5 -5 -5 -6 -5 -4 -3 -2 -2 -3 -3 -3 -3 -3 -3 -2 -2 -3 -3 -4 -4 -4 -4 -4
-9 -9 -9 -8 -7 -7 -6 -5 -5 -4 -4 -4 -5 -5 -5 -5 -5 -4 -4 -5 -5 -5 -6 -6 -5 -4 -3 -2 -2 -2 -2 -2 -2 -2 -2 -3 -4 -4 -4 -4 -4 -4 -4
-9 -9 -9 -9 -9 -8 -8 -7 -6 -6 -5 -5 -5 -5 -5 -5 -6 -5 -5 -5 -5 -5 -5 -5 -5 -5 -4 -3 -3 -2 -2 -2 -1 -1 -2 -3 -4 -4 -4 -4 -4 -4 -4
-8 -8 -9 -9 -9 -9 -8 -8 -7 -7 -7 -7 -7 -6 -7 -7 -7 -7 -6 -6 -6 -5 -5 -5 -5 -5 -5 -4 -4 -3 -3 -2 -2 -2 -2 -3 -4 -5 -5 -5 -5 -4 -4
-8 -8 -8 -9 -8 -8 -8 -7 -7 -7 -6 -6 -6 -6 -7 -7 -7 -7 -7 -6 -6 -6 -6 -6 -6 -5 -5 -5 -5 -5 -4 -4 -4 -4 -3 -3 -4 -5 -5 -5 -5 -5 -5
-8 -8 -8 -8 -8 -7 -7 -7 -6 -6 -6 -6 -5 -5 -6 -6 -6 -6 -6 -6 -6 -6 -6 -6 -6 -6 -5 -5 -5 -5 -5 -5 -5 -5 -4 -4 -4 -4 -4 -5 -5 -5 -5
-7 -7 -7 -7 -7 -7 -7 -6 -6 -6 -6 -5 -5 -5 -5 -4 -4 -4 -4 -4 -4 -4 -4 -4 -4 -4 -5 -5 -5 -5 -5 -5 -5 -5 -5 -5 -4 -4 -4 -4 -5 -5 -5
-5 -5 -5 -5 -6 -6 -6 -6 -6 -5 -5 -4 -4 -4 -3 -3 -3 -3 -3 -3 -2 -1 -1 -1 -1 -2 -2 -2 -3 -4 -4 -5 -5 -5 -5 -5 -5 -4 -3 -3 -4 -5 -5
-3 -3 -3 -4 -4 -4 -4 -4 -4 -4 -3 -2 -1 -0 0 1 1 1 1 1 2 3 3 3 3 3 2 1 0 -1 -1 -2 -3 -4 -4 -5 -5 -4 -3 -3 -3 -3 -4
-2 -2 -2 -1 -1 -1 -1 -1 -1 -1 0 2 4 5 6 6 7 7 6 6 6 7 8 8 7 7 6 5 4 3 2 1 0 -1 -2 -3 -4 -4 -3 -3 -3 -2 -3
-1 -1 0 1 2 3 3 3 3 4 6 7 8 9 10 10 10 10 10 9 9 10 10 10 9 9 9 8 7 6 5 5 4 3 2 0 -1 -2 -3 -3 -2 -2 -2
-1 0 2 3 5 6 7 7 7 8 9 10 11 11 11 10 10 10 10 10 10 10 10 10 10 10 10 9 9 8 7 6 6 5 5 4 3 1 -1 -2 -2 -1 -1
0 1 3 5 7 8 9 9 9 9 10 11 11 11 11 11 11 11 10 10 10 10 10 10 10 10 10 10 9 9 8 7 7 7 6 6 5 3 2 1 0 0 0
1 2 4 6 8 9 9 10 9 9 9 10 10 10 10 11 11 11 11 11 11 11 11 11 10 10 10 10 9 9 8 8 7 7 7 6 6 5 4 4 4 4 3
3 4 6 8 9 10 10 10 9 8 8 7 7 8 9 10 11 11 11 11 11 11 11 11 11 11 11 10 10 9 9 8 8 8 8 7 7 7 7 7 7 7 6
5 5 7 9 10 10 10 8 7 6 6 6 6 6 8 10 12 12 12 11 11 11 11 11 11 11 11 10 10 9 9 8 9 9 9 9 8 8 8 8 9 9 8
6 6 8 9 10 10 8 7 6 6 6 6 6 6 8 11 12 12 12 11 11 11 11 11 11 11 11 10 10 10 9 9 9 9 9 9 9 9 9 9 9 9 9
6 7 8 9 9 9 7 6 6 7 7 7 6 7 9 11 12 12 11 11 11 11 11 11 11 11 11 10 10 10 9 9 9 9 9 9 9 9 9 9 9 9 9